World > North America > United States > Ohio

Hourly Palestine, OH Regional Weather

Feedback E-mail the Weather

Quick WX

Palestine, OH Weather Maps

°F °C°F °C
Palestine Weather Map
UTC Time: 7/7/2022, 05:34
Your Time:

Palestine, OH Regional Weather

Expires:202207070600;;879458
ASUS41 KCLE 070512
RWRCLE
OHIO REGIONAL WEATHER ROUNDUP
NATIONAL WEATHER SERVICE WILMINGTON, OH
100 AM EDT THU JUL 07 2022

NOTE: "FAIR" INDICATES FEW OR NO CLOUDS BELOW 12,000 FEET WITH NO
SIGNIFICANT WEATHER AND/OR OBSTRUCTIONS TO VISIBILITY.


OHZ042-051>053-060>062-070>072-077>081-070600-
  SOUTHWEST OHIO
  
CITY           SKY/WX    TMP DP  RH WIND       PRES   REMARKS
CINC-COVINGTON MOCLDY    74  74 100 N5        29.98S                  
CINC-LUNKEN      N/A    N/A N/A N/A MISG      29.97F                  
HAMILTON       CLOUDY    74  73  97 CALM      29.98F                  
DAYTON         CLOUDY    72  69  90 NE6       30.01S                  
WRIGHT-PAT AFB CLOUDY    72  70  95 NE6       29.96S                  
DAYTON GENERAL MOCLDY    73  71  93 NE6       29.98F                  
WILMINGTON     CLOUDY    74  71  91 N6        29.99S                  
$$


SKY/WX - Weather  TMP - Temperature  DP - Dew Point  RH - Humidity
WIND - Wind Direction/Speed PRES - Barometric Pressure VSB - Visibility
WCI - Wind Chill Index E13G22 Wind - East Wind 13 mph/Gusts of 22 mph

Trending Headlines

Palestine Radar Loop



Palestine Quick Facts


National Two Day Weather Forecast


E-mail the Palestine Weather Forecast

Voice your opinion or tell us about page issues...